RH
50 55 57 59 63 67 66 64 63 61 58 59 61 60 63 62 53 54 64 67 69 72 73 72 72 74 77 79 80 85 90 89 87 88 89 90 90 89 85 83 82 80 78 76 75 76 76 75 74 74 72 67 62 61 61 62 64 66 65 62 59 58 55 50 46 43 41 40 38 37 36 35 36 38 40 43 44 44 44 44 44 45 44 43 44 46 47
49 53 56 59 60 62 64 62 62 61 58 58 61 62 67 67 62 64 69 69 71 72 73 76 76 74 75 77 78 80 84 86 87 89 89 89 92 93 89 86 85 82 80 79 77 76 77 76 75 75 75 75 72 69 68 68 70 72 71 68 65 63 61 56 52 48 45 43 41 38 36 35 37 40 42 45 46 47 47 48 48 48 47 46 45 45 45
46 50 53 56 57 58 60 61 62 61 58 59 61 63 71 74 70 69 74 75 74 72 72 77 78 75 74 75 76 78 79 80 82 85 87 87 89 91 88 86 85 82 81 80 78 77 76 75 76 76 78 79 79 79 77 75 75 75 76 75 71 69 68 66 62 57 50 46 45 42 40 40 42 45 47 49 49 50 51 52 51 50 50 49 49 49 48
44 48 53 57 57 55 55 59 62 62 61 62 61 62 72 81 76 72 77 80 78 75 73 75 77 76 75 75 75 75 77 79 80 82 86 87 88 89 88 85 83 82 80 80 80 80 80 79 79 80 81 83 84 85 85 83 82 81 80 80 76 73 75 76 74 67 57 52 52 50 48 46 46 49 52 52 51 51 51 51 52 52 51 50 50 51 49
41 47 54 58 58 55 56 58 59 62 65 65 63 62 71 82 79 73 77 81 81 78 75 75 78 77 74 75 75 73 74 77 79 82 85 85 85 86 85 84 82 81 81 81 80 81 81 81 81 81 83 84 85 87 88 88 87 85 86 87 83 79 81 84 84 76 66 60 59 57 54 52 51 53 54 53 52 51 53 55 58 60 58 54 52 50 48
38 48 53 52 56 58 60 62 62 66 69 67 65 64 69 80 80 75 77 80 79 77 75 75 79 78 76 76 76 74 72 74 75 77 78 79 78 79 81 81 81 80 80 80 79 80 81 80 80 81 83 85 86 88 90 91 90 88 91 93 90 85 86 89 87 82 75 70 68 66 63 60 59 58 57 58 57 56 57 62 66 67 65 61 57 55 52
40 50 51 48 56 61 60 62 66 69 69 68 66 65 67 76 79 76 77 77 75 73 72 73 77 81 81 79 78 77 73 72 73 73 74 76 75 75 75 75 76 77 78 79 79 81 82 83 84 85 86 88 90 89 89 92 93 93 94 97 95 90 87 88 88 86 83 79 76 74 72 70 68 67 65 65 67 66 67 71 73 73 71 70 70 69 66
40 46 46 45 51 54 54 57 63 67 68 67 66 66 68 73 77 79 79 77 72 69 68 68 71 79 85 82 79 80 77 74 75 74 73 76 77 76 75 74 75 78 78 77 78 80 82 83 85 88 90 91 93 94 93 92 92 93 93 95 96 93 89 87 87 87 86 84 81 79 80 79 77 74 72 73 79 81 80 79 79 78 79 80 82 81 78
43 46 47 46 47 47 47 50 56 62 66 68 68 69 71 72 74 76 76 75 72 68 67 69 68 74 86 87 81 81 80 77 77 75 74 77 77 74 74 74 76 78 76 75 77 80 80 80 82 85 87 87 88 92 93 92 91 91 91 91 91 91 91 89 88 87 86 87 88 88 88 86 82 79 78 80 84 86 85 83 81 81 82 84 86 84 82
49 52 51 50 52 52 49 49 52 57 63 67 68 68 69 69 70 70 69 72 75 72 70 70 66 68 82 89 86 83 81 77 76 76 75 76 76 75 75 75 76 78 77 76 78 79 78 79 79 79 81 84 86 88 89 89 90 91 90 89 88 88 90 90 88 88 87 88 91 91 88 86 84 83 83 83 84 85 84 84 84 83 83 85 86 86 86
50 52 50 51 52 50 48 48 51 54 60 66 67 66 65 65 66 67 65 68 73 74 73 72 67 66 75 85 87 85 81 77 75 73 72 73 74 75 78 80 81 82 83 83 82 80 79 80 80 78 78 80 83 85 86 86 88 89 89 90 91 90 90 90 90 90 91 90 89 89 86 85 84 85 85 85 84 84 84 84 84 84 84 85 86 87 87
49 49 49 50 47 43 44 46 49 53 59 64 68 70 68 65 66 67 66 65 68 70 71 71 69 66 67 74 83 85 79 75 72 70 69 70 71 71 75 81 82 84 87 88 87 86 85 84 83 80 77 76 79 85 89 90 91 90 89 89 91 91 91 91 89 89 89 88 88 87 87 86 85 84 83 82 81 80 80 81 82 83 83 83 84 86 87
52 49 48 49 47 42 41 42 45 51 57 62 70 73 70 67 69 69 67 66 67 68 68 67 69 69 66 68 77 82 79 74 71 67 67 69 69 66 69 75 79 82 86 87 85 86 87 84 82 80 77 77 80 86 90 91 92 93 92 91 91 90 88 87 85 84 84 85 85 84 84 83 83 82 80 80 80 79 78 78 79 81 83 83 84 87 89
52 52 51 51 48 43 40 41 43 47 54 61 67 69 67 68 72 72 70 69 69 68 68 69 70 73 72 70 73 77 77 76 72 67 66 69 68 64 65 69 72 76 80 81 81 83 83 81 81 79 77 76 79 82 84 86 88 89 89 88 87 86 84 83 82 82 82 82 81 81 82 82 83 82 81 82 82 80 78 79 80 82 84 84 85 87 87
51 54 54 52 49 46 43 43 45 48 54 57 60 63 66 69 71 73 73 71 68 69 72 73 73 76 76 74 74 75 74 73 69 66 67 68 66 63 61 64 68 72 76 78 80 83 83 82 83 81 79 78 80 81 84 87 88 88 87 85 85 84 83 82 83 83 83 83 84 85 86 85 83 80 78 77 77 76 76 78 77 75 76 76 76 77 78
52 54 55 53 51 50 48 47 48 50 52 55 57 61 66 67 70 73 74 73 71 70 72 73 74 76 77 76 76 76 73 67 65 65 66 64 62 60 58 59 63 68 72 74 77 80 82 82 82 81 80 80 80 81 83 85 86 87 87 86 86 84 83 83 84 85 85 86 86 85 84 81 78 75 73 75 78 78 78 78 76 74 74 73 71 72 72
54 55 55 54 53 54 54 52 52 52 53 57 59 60 62 65 68 70 71 72 73 71 70 73 74 75 76 76 74 73 70 66 66 69 67 63 60 58 56 56 58 60 63 65 65 68 72 74 76 76 75 73 72 72 73 75 76 78 79 79 80 81 81 80 80 81 81 81 81 80 78 76 74 72 71 73 76 78 78 78 77 76 75 74 73 73 74
51 52 53 55 57 59 58 57 57 56 57 60 62 62 62 64 67 68 67 69 72 72 71 74 75 75 75 73 71 69 68 66 69 72 69 65 61 57 54 54 54 54 55 57 56 58 62 66 69 70 70 67 67 67 68 68 68 69 70 71 72 72 72 71 71 71 70 70 71 70 68 67 66 65 65 65 67 69 72 73 73 72 71 71 72 73 73
49 53 57 60 61 61 60 60 61 60 60 62 65 67 65 65 68 70 67 68 75 78 75 73 73 72 71 69 67 66 66 66 67 68 67 65 64 60 55 53 52 52 52 53 54 56 59 63 65 66 65 63 62 62 61 61 60 60 61 62 64 64 63 63 63 63 62 61 60 59 58 57 57 57 57 56 57 60 64 66 66 66 64 63 64 65 66
51 54 59 63 63 61 60 61 62 61 62 65 70 71 69 67 70 72 69 69 76 80 76 72 69 68 67 66 64 62 63 64 65 65 64 63 62 61 59 58 58 57 57 56 57 58 59 59 60 59 57 55 55 55 54 55 54 54 54 55 58 59 60 61 61 61 60 58 56 54 53 53 53 54 54 54 54 55 56 58 59 59 59 59 58 59 59
50 52 59 63 63 61 59 59 59 60 60 64 72 79 76 71 71 73 72 72 77 79 76 72 68 65 65 65 62 60 61 64 65 66 66 65 63 63 63 63 62 60 57 56 56 55 55 55 54 54 53 52 52 52 53 53 53 53 52 52 54 55 56 57 57 56 55 53 52 52 51 51 50 51 51 52 52 52 52 52 52 53 54 54 54 54 54
53 55 59 60 61 62 61 61 62 62 61 66 78 87 83 74 72 75 75 74 75 76 74 72 70 69 67 66 63 62 63 66 68 69 70 69 68 67 66 65 62 58 56 54 52 51 50 50 50 51 51 50 51 51 52 53 53 53 53 53 53 54 54 53 53 53 52 50 49 48 47 45 44 44 45 45 46 46 46 47 47 48 48 48 48 48 48
54 53 53 55 58 61 62 63 63 63 65 73 84 88 83 79 79 81 83 82 79 75 74 75 75 74 72 70 68 67 67 68 69 71 71 71 69 68 68 68 64 59 57 56 54 52 52 51 51 50 50 50 50 50 50 52 52 53 53 53 52 52 53 53 52 52 51 49 47 45 43 42 42 42 42 42 41 41 42 43 44 45 45 45 44 43 42
49 46 47 51 56 60 61 60 61 65 70 78 82 80 78 80 81 80 83 86 82 76 73 75 76 75 74 73 72 69 69 69 69 69 68 67 65 64 65 66 64 60 57 55 53 51 51 51 52 51 50 49 49 48 48 49 49 48 49 48 47 48 49 49 49 47 47 46 44 42 40 39 39 40 40 40 40 39 40 41 43 44 44 44 43 42 41
45 44 44 44 49 55 57 57 60 67 71 72 71 71 72 73 73 71 74 80 81 76 71 71 72 71 70 68 66 65 62 61 61 60 60 59 57 56 57 57 57 56 54 52 49 47 46 47 49 49 47 46 44 44 44 44 43 43 43 43 42 43 43 44 43 43 43 43 43 43 41 39 38 38 38 39 39 39 41 41 42 43 44 44 44 44 43
45 46 44 42 43 48 52 55 58 63 64 62 60 61 63 62 61 61 64 68 71 67 62 61 61 60 57 54 53 51 49 47 46 47 46 45 44 44 45 46 47 47 46 44 44 42 41 41 42 42 42 40 39 38 38 37 37 37 37 37 36 35 35 35 34 34 34 34 35 36 36 36 35 34 34 35 36 37 39 41 42 43 44 43 44 46 46
46 46 45 44 43 44 49 53 54 54 56 53 51 51 52 51 50 51 52 54 54 53 51 51 50 48 45 43 41 41 40 40 37 36 34 35 34 34 35 37 38 38 37 36 35 35 34 34 34 35 35 35 34 33 32 32 31 31 30 30 30 30 30 29 28 27 27 27 26 27 28 29 29 28 28 29 29 30 31 32 35 37 38 39 40 43 43
47 47 45 43 42 43 46 50 50 49 48 46 45 45 44 42 42 43 44 45 44 43 44 44 43 41 41 40 38 37 36 35 33 31 31 31 31 32 32 32 33 33 32 32 31 32 32 33 32 32 32 32 32 32 31 30 30 29 29 29 29 29 29 28 28 27 26 25 24 24 25 26 25 25 25 25 25 25 25 26 27 29 32 34 36 38 38
47 48 45 42 41 40 42 43 44 44 42 40 41 41 40 38 37 38 38 38 36 36 36 35 34 34 34 34 34 34 33 32 31 31 31 31 31 32 32 32 32 33 33 33 33 33 33 34 34 33 33 33 32 32 31 30 30 30 30 30 30 29 29 28 28 27 26 26 25 24 24 24 25 24 23 23 22 22 23 24 26 30 32 34 36 38 39
47 48 47 45 43 42 43 42 41 39 38 37 37 36 35 34 33 33 34 34 33 33 32 31 31 31 30 31 31 31 31 31 32 32 32 32 31 31 31 31 31 32 33 34 34 34 34 34 34 33 33 33 33 33 32 32 32 32 31 31 31 31 30 30 29 29 28 29 28 27 26 26 26 26 26 25 25 24 23 23 26 31 35 38 40 41 42
47 48 49 48 47 45 45 44 42 39 36 34 34 33 33 32 31 31 33 33 32 32 31 30 30 31 30 30 30 31 31 32 32 32 32 32 31 31 32 31 31 31 32 32 32 32 32 31 30 30 30 29 28 28 28 28 29 29 30 31 31 31 31 31 31 31 31 31 31 30 30 29 28 27 27 26 27 27 26 25 26 29 34 37 40 42 43
48 49 51 50 48 46 45 44 43 40 38 36 34 33 33 31 30 31 32 31 31 32 31 28 28 28 28 28 29 29 30 31 30 29 29 28 28 28 27 27 26 27 26 25 25 25 24 23 22 22 20 19 18 17 17 18 19 20 22 24 26 27 28 28 28 28 28 28 30 30 31 31 30 30 28 26 26 26 26 26 26 27 30 34 37 40 42
48 47 45 45 45 45 45 43 40 39 38 36 34 33 32 31 30 30 30 31 33 33 31 30 29 31 31 31 31 30 29 28 27 25 24 23 22 22 23 23 23 22 22 22 22 21 20 19 17 16 13 12 12 12 12 13 14 14 15 16 17 19 20 22 23 23 24 26 27 28 29 30 30 31 30 28 27 26 26 26 26 27 29 32 35 38 41
43 40 39 39 41 44 45 43 40 38 38 36 35 34 34 33 33 33 33 34 35 36 34 33 33 34 35 34 32 30 27 24 22 21 21 21 21 21 21 22 21 21 21 21 20 18 17 15 14 13 12 12 13 14 14 14 15 16 16 17 17 17 17 18 18 19 20 22 23 25 26 27 28 29 30 30 29 29 30 31 32 32 33 35 36 37 39
37 35 35 36 39 42 43 43 43 41 38 36 36 37 37 37 37 37 37 37 37 38 36 35 35 34 33 31 28 26 24 22 21 20 21 22 22 22 22 21 21 20 20 19 17 16 15 15 15 15 15 16 17 18 19 19 19 19 21 22 22 21 21 21 21 21 21 21 22 23 24 25 26 27 29 29 30 32 35 39 40 40 41 43 43 42 41
34 33 33 34 36 39 40 41 42 41 39 37 37 39 40 40 40 40 39 39 38 38 37 36 34 32 29 26 24 22 22 21 21 22 22 23 23 22 22 21 20 19 18 18 16 15 15 16 16 16 16 16 16 17 18 19 20 20 21 22 22 22 23 22 22 22 22 22 22 21 21 22 22 23 25 26 29 31 34 39 43 44 45 47 49 49 49
34 35 35 35 35 36 38 39 39 39 39 38 39 40 41 42 42 41 40 39 38 37 37 35 32 28 25 24 23 22 23 23 23 23 23 24 24 24 23 22 19 17 15 15 15 15 15 15 15 15 15 15 15 16 17 18 19 20 21 21 21 22 22 22 22 22 22 22 21 21 21 20 20 20 20 21 25 28 30 33 39 43 45 47 50 52 55
36 37 38 37 37 38 39 39 39 40 40 41 41 42 42 42 42 41 40 39 38 38 36 33 29 26 25 25 25 25 25 25 25 25 25 26 25 24 21 19 16 15 14 15 15 15 15 14 14 14 14 15 15 16 17 17 18 19 19 20 20 21 21 21 21 22 22 22 23 23 23 23 22 21 20 19 21 24 27 29 32 36 39 42 45 48 52
39 40 40 41 41 42 43 42 42 42 41 42 43 43 42 41 40 40 39 40 40 38 34 30 27 27 26 27 27 27 27 27 27 27 25 23 20 18 17 16 15 15 15 15 15 15 14 15 15 16 17 18 17 18 19 19 19 20 20 20 21 21 21 22 22 22 22 24 25 26 26 27 26 25 24 23 23 24 27 30 32 32 33 36 40 42 46
44 45 44 44 45 46 46 46 45 44 43 44 44 43 42 41 40 40 40 40 39 36 32 29 28 28 28 28 28 29 29 28 26 22 19 17 16 16 16 16 16 16 16 16 17 17 18 19 19 19 20 20 20 20 20 21 21 22 22 22 22 22 22 22 23 23 24 26 27 28 29 29 30 30 30 30 28 29 32 34 36 36 35 36 39 42 46
47 48 48 49 49 48 48 48 47 47 46 45 44 43 42 41 41 41 41 39 37 34 32 30 29 28 29 29 30 29 26 22 19 16 16 16 16 16 16 17 18 18 19 19 20 20 20 20 20 20 20 20 21 21 21 21 21 22 23 23 23 24 24 24 25 25 26 27 28 30 33 35 36 38 39 38 38 38 39 39 40 42 44 45 45 44 43
50 52 53 53 52 51 50 49 49 50 49 47 45 44 44 43 43 42 40 38 35 33 31 29 29 30 31 30 28 24 19 16 16 16 16 16 17 17 18 19 20 21 21 20 20 20 20 20 20 19 20 20 21 21 22 21 22 23 24 26 26 27 27 27 28 29 30 31 32 36 39 41 42 44 45 45 46 47 47 46 45 45 46 49 49 45 43
53 54 55 54 54 54 52 51 51 51 50 49 47 46 45 46 44 42 39 37 35 32 30 29 29 29 28 24 20 17 16 17 17 17 17 17 18 19 20 20 20 20 20 20 20 19 19 19 19 19 20 21 21 22 23 25 26 27 28 29 30 30 30 31 33 33 35 36 38 41 44 47 48 50 51 51 52 53 54 54 54 52 49 49 50 49 50
56 55 54 55 56 56 55 55 54 53 51 49 49 48 47 46 44 41 38 36 33 30 27 27 26 23 21 19 17 17 18 18 17 17 18 18 19 19 18 18 18 18 18 18 17 17 17 17 17 18 19 21 22 24 25 27 29 30 31 31 31 31 32 34 36 37 38 39 42 46 49 52 54 55 56 58 60 61 60 61 64 63 60 57 56 57 61
61 58 56 57 58 59 59 57 55 53 51 50 50 49 48 45 42 40 37 33 27 23 22 21 21 20 19 18 18 18 18 18 19 19 18 18 18 18 18 18 18 18 17 17 17 17 17 17 17 19 20 22 24 26 27 28 29 31 31 32 32 32 33 34 37 40 42 43 45 48 52 54 56 57 58 60 62 65 68 71 72 70 67 66 65 63 64
67 66 64 64 63 61 60 58 55 53 52 51 50 49 46 42 39 35 30 24 20 19 20 21 21 20 20 19 18 19 20 20 20 19 19 19 19 19 19 19 19 19 19 19 19 18 18 18 19 21 23 25 26 27 29 30 31 31 32 33 33 33 34 35 37 41 45 48 49 51 54 56 57 58 59 60 60 64 71 78 82 78 74 76 79 76 70
68 68 69 68 66 62 59 57 55 54 53 50 47 44 40 36 31 27 23 20 21 22 22 22 22 20 20 20 21 22 22 22 21 20 20 20 21 21 21 21 21 21 21 20 20 19 20 20 21 22 25 26 27 28 30 31 31 31 32 33 35 35 35 35 37 41 47 50 51 53 57 61 62 61 61 61 62 66 71 79 83 83 79 78 81 84 82
68 66 66 66 64 60 58 56 55 53 51 46 42 37 34 31 28 25 24 23 24 24 23 23 22 21 22 23 24 24 24 23 22 22 22 23 23 23 23 23 23 22 22 21 20 20 21 21 22 23 24 25 26 28 30 32 31 30 31 32 34 34 34 33 36 41 47 50 52 54 58 62 66 67 67 66 65 67 71 76 80 83 84 83 82 82 83
67 66 65 64 61 59 57 56 54 51 47 44 40 36 33 30 28 27 26 25 25 25 24 25 24 25 25 27 27 26 25 25 24 24 25 25 25 25 25 25 24 23 22 21 21 22 22 23 24 24 24 23 23 25 28 30 30 30 30 31 31 32 32 33 35 40 46 50 52 55 58 62 65 69 70 70 68 67 68 69 71 75 79 82 83 83 83
66 65 63 62 60 57 55 53 52 50 49 47 43 38 34 32 30 28 27 26 26 27 27 28 28 29 29 30 29 29 28 27 26 27 27 28 27 27 27 27 26 25 24 23 23 24 24 25 26 26 25 25 25 26 28 29 29 29 28 29 30 31 31 32 34 39 44 50 53 55 58 61 63 64 67 72 75 75 74 72 71 71 71 73 75 78 79
65 63 61 60 58 56 54 54 54 55 55 52 46 40 36 34 32 30 28 28 29 30 31 31 31 32 32 32 32 32 31 30 30 30 30 30 30 30 30 29 28 26 25 25 25 26 26 27 28 28 28 28 28 29 31 32 31 30 28 28 29 30 31 32 34 37 42 48 53 57 59 62 64 65 66 69 73 77 80 81 79 77 74 73 73 73 74
66 64 62 60 59 58 58 59 58 58 56 52 46 41 39 37 34 31 31 32 33 33 33 33 33 34 35 35 35 35 35 34 33 33 32 32 32 32 32 31 29 28 27 27 28 29 29 29 30 31 31 31 31 32 33 34 34 34 33 33 33 34 35 36 37 38 41 45 49 53 56 59 63 66 67 67 68 70 75 79 82 83 81 78 75 74 73